SCP
0 0 0 0 0 0 0 0 0 0 0 0 0 0 0 0 0 0 0 0 0 0 0 0 0 0 0 0 0 0 0 0 0 0 0 0 0 0 0 0 0 0 0
0 0 0 0 0 0 0 0 0 0 0 0 0 0 0 0 0 0 0 0 0 0 0 0 0 0 0 0 0 0 0 0 0 0 0 0 0 0 0 0 0 0 0
0 0 0 0 0 0 0 0 0 0 0 0 0 0 0 0 0 0 0 0 0 0 0 0 0 0 0 0 0 0 0 0 0 0 0 0 0 0 0 0 0 0 0
0 0 0 0 0 0 0 0 0 0 0 0 0 0 0 0 0 0 0 0 0 0 0 0 0 0 0 0 0 0 0 0 0 0 0 0 0 0 0 0 0 0 0
0 0 0 0 0 0 0 0 0 0 0 0 0 0 0 0 0 0 0 0 0 0 0 0 0 0 0 0 0 0 0 0 0 0 0 0 0 0 0 0 0 0 0
0 0 0 0 0 0 0 0 0 0 0 0 0 0 0 0 0 0 0 0 0 0 0 0 0 0 0 0 0 0 0 0 0 0 0 0 0 0 0 0 0 0 0
0 0 0 0 0 0 0 0 0 0 0 0 0 0 0 0 0 0 0 0 0 0 0 0 0 0 0 0 0 0 0 0 0 0 0 0 0 0 0 0 0 0 0
0 0 0 0 0 0 0 0 0 0 0 0 0 0 0 0 0 0 0 0 0 0 0 0 0 0 0 0 0 0 0 0 0 0 0 0 0 0 0 0 0 0 0
0 0 0 0 0 0 0 0 0 0 0 0 0 0 0 0 0 0 0 0 0 0 0 0 0 0 0 0 0 0 0 0 0 0 0 0 0 0 0 0 0 0 0
0 0 0 0 0 0 0 0 0 0 0 0 0 0 0 0 0 0 0 0 0 0 0 0 0 0 0 0 0 0 0 0 0 0 0 0 0 0 0 0 0 0 0
0 0 0 0 0 0 0 0 0 0 0 0 0 0 0 0 0 0 0 0 0 0 0 0 0 0 0 0 0 0 0 0 0 0 0 0 0 0 0 0 0 0 0
0 0 0 0 0 0 0 0 0 0 0 0 0 0 0 0 0 0 0 0 0 0 0 0 0 0 0 0 0 0 0 0 0 0 0 0 0 0 0 0 0 0 0
0 0 0 0 0 0 0 0 0 0 0 0 0 0 0 0 0 0 0 0 0 0 0 0 0 0 0 0 0 0 0 0 0 0 0 0 0 0 0 0 0 0 0
0 0 0 0 0 0 0 0 0 0 0 0 0 0 0 0 0 0 0 0 0 0 0 0 0 0 0 0 0 0 0 0 0 0 0 0 0 0 0 0 0 0 0
0 0 0 0 0 0 0 0 0 0 0 0 0 0 0 0 0 0 0 0 0 0 0 0 0 0 0 0 0 0 0 0 0 0 0 0 0 0 0 0 0 0 0
0 0 0 0 0 0 0 0 0 0 0 0 0 0 0 0 0 0 0 0 0 0 0 0 0 0 0 0 0 0 0 0 0 0 0 0 0 0 0 0 0 0 0
0 0 0 0 0 0 0 0 0 0 0 0 0 0 0 0 0 0 0 0 0 0 0 0 0 0 0 0 0 0 0 0 0 0 0 0 0 0 0 0 0 0 0
0 0 0 0 0 0 0 0 0 0 0 0 0 0 0 0 0 0 0 0 0 0 0 0 0 0 0 0 0 0 0 0 0 0 0 0 0 0 0 0 0 0 0
0 0 0 0 0 0 0 0 0 0 0 0 0 0 0 0 0 0 0 0 0 0 0 0 0 0 0 0 0 0 0 0 0 0 0 0 0 0 0 0 0 0 0
0 0 0 0 0 0 0 0 0 0 0 0 0 0 0 0 0 0 0 0 0 0 0 0 0 0 0 0 0 0 0 0 0 0 0 0 0 0 0 0 0 0 0
0 0 0 0 0 0 0 0 0 0 0 0 0 0 0 0 0 0 0 0 0 0 0 0 0 0 0 0 0 0 0 0 0 0 0 0 0 0 0 0 0 0 0
0 0 0 0 0 0 0 0 0 0 0 0 0 0 0 0 0 0 0 0 0 0 0 0 0 0 0 0 0 0 0 0 0 0 0 0 0 0 0 0 0 0 0
0 0 0 0 0 0 0 0 0 0 0 0 0 0 0 0 0 0 0 0 0 0 0 0 0 0 0 0 0 0 0 0 0 0 0 0 0 0 0 0 0 0 -0
0 0 0 0 0 0 0 0 0 0 0 0 0 0 0 0 0 0 0 0 0 0 0 0 0 0 0 0 0 0 0 0 0 0 0 0 0 0 0 0 0 0 -0
0 0 0 0 0 0 0 0 0 0 0 0 0 0 0 0 0 0 0 0 0 0 0 0 0 0 0 0 0 0 0 0 0 0 0 0 0 0 0 0 0 0 0
0 0 0 0 0 0 0 0 0 0 0 0 0 0 0 0 0 0 0 0 0 0 0 0 0 0 0 0 0 0 0 0 0 0 0 0 0 0 0 0 0 0 0
Wind_Speed_500mb
80 82 79 76 78 76 73 74 74 73 79 80 84 85 79 73 67 60 52 44 38 31 25 19 12 10 11 13 14 14 15 17 21 27 31 34 37 40 44 50 56 60 65
73 79 76 74 77 79 75 76 76 76 80 84 87 87 82 75 68 61 53 45 37 30 24 19 12 13 17 17 17 18 20 24 27 32 37 40 43 46 51 57 62 66 69
69 76 78 78 81 81 77 77 78 80 83 85 90 88 82 75 69 61 51 43 38 31 23 15 15 22 20 20 20 22 26 31 33 39 45 46 52 54 59 63 68 72 76
67 77 82 83 82 84 79 79 79 80 82 86 92 88 82 76 68 60 53 47 40 30 23 24 26 26 24 24 25 28 33 36 39 45 51 54 57 59 65 72 77 77 82
67 79 85 84 82 85 82 80 80 82 84 88 96 91 84 78 70 63 56 50 39 31 32 32 33 32 31 32 32 34 39 42 44 50 56 59 61 65 69 74 79 85 85
70 78 84 86 87 88 86 82 84 86 89 95 99 93 88 80 70 63 57 53 42 39 40 35 41 39 39 39 39 41 44 47 49 55 59 61 64 68 71 74 78 80 78
74 76 84 89 91 91 88 88 89 92 92 99 101 95 88 78 71 65 58 51 48 41 50 39 47 47 48 47 47 48 51 53 55 59 64 64 69 72 72 73 72 71 73
75 77 81 88 92 92 92 93 94 94 96 103 101 93 85 77 72 66 60 59 55 50 67 47 51 56 56 54 54 55 57 57 57 59 64 65 70 70 64 61 67 70 84
73 76 79 83 90 91 92 91 90 90 96 99 95 89 84 77 71 66 66 62 64 68 67 61 55 62 60 58 60 61 63 65 61 60 64 67 66 61 47 56 67 75 82
63 66 70 76 81 82 82 83 84 84 89 90 87 82 76 72 71 68 72 70 67 73 63 62 56 65 64 61 62 65 72 69 65 69 68 65 59 59 56 60 62 67 68
47 49 52 58 63 68 72 76 78 81 78 75 74 73 70 66 69 70 78 75 66 65 64 60 62 60 64 64 65 70 71 67 71 72 70 70 66 66 65 63 64 64 67
31 31 35 41 50 58 62 64 66 62 62 65 68 61 60 68 70 78 76 72 65 70 65 61 58 57 64 67 68 67 67 63 60 62 65 67 70 75 74 70 64 67 70
23 24 25 30 37 45 51 55 55 55 60 66 69 62 61 72 80 76 73 68 66 70 65 61 59 64 67 67 66 61 51 56 61 64 69 72 72 73 73 71 68 67 70
24 25 25 24 30 35 39 43 53 59 53 49 52 61 72 80 74 73 69 56 56 65 71 68 65 66 64 64 61 55 55 57 59 60 62 65 71 72 72 69 69 65 66
23 23 25 28 34 41 46 48 51 49 47 50 57 65 68 67 56 49 54 59 58 60 60 65 67 65 63 61 59 56 53 51 52 59 62 64 64 64 63 62 56 52 53
22 24 25 26 30 33 38 45 48 47 50 51 49 49 50 51 52 54 55 55 53 54 61 63 62 60 58 55 51 45 49 56 57 57 57 55 55 54 53 50 45 46 50
19 24 25 25 26 28 31 33 35 39 42 42 40 42 43 45 47 46 48 49 50 55 57 52 51 49 45 42 46 51 53 54 55 53 52 51 49 46 42 41 41 44 48
22 20 19 19 19 19 20 21 25 27 31 35 40 42 44 46 46 46 48 52 46 44 45 44 41 40 43 46 47 48 49 50 50 49 46 42 37 37 36 37 39 41 43
18 17 18 17 17 18 19 22 25 27 30 33 33 34 38 40 42 45 44 37 38 40 40 39 40 42 43 43 44 44 44 44 43 41 37 33 32 32 31 32 33 34 38
13 11 10 11 12 14 17 21 26 29 33 34 35 35 36 38 35 30 34 35 37 37 39 40 39 40 41 41 40 40 39 37 36 35 32 30 30 29 31 31 31 33 33
8 8 10 12 13 15 18 21 25 29 30 32 35 38 40 40 39 38 37 38 39 40 41 41 39 38 39 38 37 36 35 31 30 30 31 31 29 29 31 33 33 32 31
10 11 12 14 15 17 19 22 25 27 29 32 35 38 45 39 39 39 40 41 41 42 42 39 38 37 37 36 35 33 31 28 28 32 32 32 31 32 33 33 34 32 30
9 11 14 15 17 19 21 23 25 26 28 30 33 37 38 37 38 40 42 43 41 42 41 39 37 35 35 33 33 32 30 27 29 33 31 32 32 32 33 33 33 32 30
7 9 11 14 15 17 19 21 24 27 29 32 34 37 39 40 41 41 42 43 42 41 42 40 38 34 35 34 34 32 31 31 32 33 34 33 31 32 33 34 34 34 33
5 8 10 13 16 18 21 23 26 29 31 33 35 38 40 42 43 43 44 44 44 43 43 42 41 38 35 32 32 32 33 33 33 34 35 35 34 34 34 35 33 33 31
8 10 12 14 16 18 20 23 26 28 31 34 38 40 43 45 46 46 46 46 46 45 43 42 41 40 38 35 34 35 34 34 32 33 35 34 33 32 33 33 33 33 30
Wind_Direction_500mb
228 230 228 224 220 220 223 227 226 225 222 216 211 206 203 202 202 202 202 202 198 195 191 190 199 226 244 259 270 276 281 282 284 292 300 307 312 316 318 318 320 320 320
229 231 231 226 221 221 225 228 226 224 221 216 211 207 205 204 205 204 205 201 199 195 194 194 211 242 251 259 264 270 277 283 289 294 300 308 313 318 319 318 317 318 317
228 228 230 228 221 222 226 228 227 222 220 215 211 209 207 207 207 206 205 203 198 195 198 217 242 252 254 260 265 272 278 283 289 294 299 307 312 317 317 315 315 316 317
229 228 230 230 224 222 224 227 227 224 221 216 212 211 210 209 208 207 203 201 200 201 215 235 253 250 256 264 270 274 277 282 288 293 297 303 307 313 313 314 313 315 317
234 230 230 231 227 223 224 226 228 227 222 216 212 210 211 210 209 207 206 205 205 215 230 241 249 250 258 268 273 275 277 281 286 290 293 299 306 309 312 313 310 313 316
238 234 231 230 227 227 228 225 229 227 221 214 213 212 210 209 208 209 210 209 202 227 229 246 250 255 263 269 274 275 277 280 285 287 292 296 301 305 309 307 309 311 313
242 236 233 231 229 228 227 228 228 227 221 214 213 212 211 210 210 210 211 208 223 225 239 242 253 259 263 268 273 277 280 284 288 290 291 295 300 303 304 304 302 303 307
244 238 234 233 231 230 227 228 229 226 221 215 213 212 212 211 211 211 211 217 239 225 242 245 251 257 262 268 272 277 280 282 284 282 285 293 294 297 298 301 296 302 307
243 239 236 233 231 229 228 227 227 223 217 214 214 213 212 211 212 213 214 225 248 234 247 252 246 256 262 267 273 278 281 282 283 284 286 288 294 299 285 283 290 296 299
246 241 237 234 232 230 229 227 226 223 218 214 214 215 215 214 215 215 224 242 248 249 250 255 252 258 261 266 272 278 280 285 290 287 287 290 292 293 297 299 299 291 287
242 243 241 237 233 230 228 225 224 220 216 217 216 217 220 216 219 220 238 253 257 255 250 254 258 259 265 269 272 275 280 287 288 291 294 297 299 302 303 300 301 286 288
231 226 226 227 225 223 223 223 221 216 213 216 216 216 221 222 223 236 251 246 254 257 256 262 262 262 265 267 271 277 281 285 285 289 291 291 293 295 298 297 295 290 291
190 192 197 204 210 213 215 215 210 202 212 220 227 224 222 225 235 246 251 238 251 259 265 266 263 263 265 269 275 276 274 275 280 282 286 291 293 294 296 298 296 294 293
157 161 165 181 190 196 199 204 205 216 227 226 224 220 225 236 245 249 245 244 251 254 260 261 264 269 271 272 273 274 277 279 281 286 290 293 298 298 297 297 297 297 293
153 161 167 180 189 192 202 215 222 226 230 230 228 234 242 246 246 242 248 254 257 253 255 257 260 262 265 268 273 276 277 281 286 290 293 296 297 298 299 299 300 297 294
162 166 168 173 180 191 203 209 215 219 228 235 237 240 242 245 246 244 244 247 247 245 248 251 255 258 263 268 270 274 283 290 294 297 299 301 301 302 302 303 300 297 300
152 157 163 169 178 184 191 201 208 212 221 226 228 230 233 237 240 242 245 247 245 245 249 251 253 258 260 267 278 284 290 295 299 303 305 306 306 308 307 304 301 303 306
146 151 156 165 172 181 190 200 207 216 224 226 228 232 235 238 242 245 244 250 251 251 252 256 258 263 271 275 280 286 292 297 302 304 303 302 304 309 311 309 306 305 307
146 152 154 165 174 185 199 211 219 226 230 235 238 239 240 239 241 245 257 256 253 251 253 257 264 268 271 276 281 287 292 297 299 299 300 302 302 305 310 309 308 309 309
156 162 174 192 204 214 225 231 234 234 237 239 240 243 246 252 253 251 250 250 251 254 260 264 265 268 271 276 281 288 293 296 298 300 301 300 299 302 304 304 305 306 307
188 203 217 226 229 234 239 244 245 244 245 245 244 245 247 248 250 252 254 254 258 261 262 263 265 269 273 278 282 286 289 293 296 296 294 294 296 296 296 299 301 301 303
225 230 238 242 245 246 249 249 249 249 247 246 246 245 250 253 255 257 257 258 258 260 262 266 269 272 274 275 278 281 284 289 289 288 290 291 291 291 292 294 295 294 296
251 259 260 262 262 261 259 257 255 253 251 249 248 250 256 256 257 259 261 264 266 269 271 271 270 270 271 273 275 278 283 284 283 284 286 286 288 288 289 290 291 290 291
252 262 268 268 268 268 266 264 261 260 259 259 260 261 263 264 263 262 263 265 268 270 273 273 271 268 268 271 274 278 283 284 283 283 283 284 284 283 283 284 286 286 286
242 248 252 258 262 264 265 268 269 270 270 270 269 269 269 269 271 272 273 274 275 275 274 273 272 272 271 272 275 280 282 284 284 282 282 281 281 281 282 281 281 279 281
252 260 263 265 266 269 271 272 272 271 270 270 270 269 268 269 271 271 272 272 272 271 270 270 271 273 275 276 275 275 276 276 277 278 279 280 281 281 279 278 276 276 275
Wind_Speed_850mb
80 82 79 76 78 76 73 74 74 73 79 80 84 85 79 73 67 60 52 44 38 31 25 19 12 10 11 13 14 14 15 17 21 27 31 34 37 40 44 50 56 60 65
73 79 76 74 77 79 75 76 76 76 80 84 87 87 82 75 68 61 53 45 37 30 24 19 12 13 17 17 17 18 20 24 27 32 37 40 43 46 51 57 62 66 69
69 76 78 78 81 81 77 77 78 80 83 85 90 88 82 75 69 61 51 43 38 31 23 15 15 22 20 20 20 22 26 31 33 39 45 46 52 54 59 63 68 72 76
67 77 82 83 82 84 79 79 79 80 82 86 92 88 82 76 68 60 53 47 40 30 23 24 26 26 24 24 25 28 33 36 39 45 51 54 57 59 65 72 77 77 82
67 79 85 84 82 85 82 80 80 82 84 88 96 91 84 78 70 63 56 50 39 31 32 32 33 32 31 32 32 34 39 42 44 50 56 59 61 65 69 74 79 85 85
70 78 84 86 87 88 86 82 84 86 89 95 99 93 88 80 70 63 57 53 42 39 40 35 41 39 39 39 39 41 44 47 49 55 59 61 64 68 71 74 78 80 78
74 76 84 89 91 91 88 88 89 92 92 99 101 95 88 78 71 65 58 51 48 41 50 39 47 47 48 47 47 48 51 53 55 59 64 64 69 72 72 73 72 71 73
75 77 81 88 92 92 92 93 94 94 96 103 101 93 85 77 72 66 60 59 55 50 67 47 51 56 56 54 54 55 57 57 57 59 64 65 70 70 64 61 67 70 84
73 76 79 83 90 91 92 91 90 90 96 99 95 89 84 77 71 66 66 62 64 68 67 61 55 62 60 58 60 61 63 65 61 60 64 67 66 61 47 56 67 75 82
63 66 70 76 81 82 82 83 84 84 89 90 87 82 76 72 71 68 72 70 67 73 63 62 56 65 64 61 62 65 72 69 65 69 68 65 59 59 56 60 62 67 68
47 49 52 58 63 68 72 76 78 81 78 75 74 73 70 66 69 70 78 75 66 65 64 60 62 60 64 64 65 70 71 67 71 72 70 70 66 66 65 63 64 64 67
31 31 35 41 50 58 62 64 66 62 62 65 68 61 60 68 70 78 76 72 65 70 65 61 58 57 64 67 68 67 67 63 60 62 65 67 70 75 74 70 64 67 70
23 24 25 30 37 45 51 55 55 55 60 66 69 62 61 72 80 76 73 68 66 70 65 61 59 64 67 67 66 61 51 56 61 64 69 72 72 73 73 71 68 67 70
24 25 25 24 30 35 39 43 53 59 53 49 52 61 72 80 74 73 69 56 56 65 71 68 65 66 64 64 61 55 55 57 59 60 62 65 71 72 72 69 69 65 66
23 23 25 28 34 41 46 48 51 49 47 50 57 65 68 67 56 49 54 59 58 60 60 65 67 65 63 61 59 56 53 51 52 59 62 64 64 64 63 62 56 52 53
22 24 25 26 30 33 38 45 48 47 50 51 49 49 50 51 52 54 55 55 53 54 61 63 62 60 58 55 51 45 49 56 57 57 57 55 55 54 53 50 45 46 50
19 24 25 25 26 28 31 33 35 39 42 42 40 42 43 45 47 46 48 49 50 55 57 52 51 49 45 42 46 51 53 54 55 53 52 51 49 46 42 41 41 44 48
22 20 19 19 19 19 20 21 25 27 31 35 40 42 44 46 46 46 48 52 46 44 45 44 41 40 43 46 47 48 49 50 50 49 46 42 37 37 36 37 39 41 43
18 17 18 17 17 18 19 22 25 27 30 33 33 34 38 40 42 45 44 37 38 40 40 39 40 42 43 43 44 44 44 44 43 41 37 33 32 32 31 32 33 34 38
13 11 10 11 12 14 17 21 26 29 33 34 35 35 36 38 35 30 34 35 37 37 39 40 39 40 41 41 40 40 39 37 36 35 32 30 30 29 31 31 31 33 33
8 8 10 12 13 15 18 21 25 29 30 32 35 38 40 40 39 38 37 38 39 40 41 41 39 38 39 38 37 36 35 31 30 30 31 31 29 29 31 33 33 32 31
10 11 12 14 15 17 19 22 25 27 29 32 35 38 45 39 39 39 40 41 41 42 42 39 38 37 37 36 35 33 31 28 28 32 32 32 31 32 33 33 34 32 30
9 11 14 15 17 19 21 23 25 26 28 30 33 37 38 37 38 40 42 43 41 42 41 39 37 35 35 33 33 32 30 27 29 33 31 32 32 32 33 33 33 32 30
7 9 11 14 15 17 19 21 24 27 29 32 34 37 39 40 41 41 42 43 42 41 42 40 38 34 35 34 34 32 31 31 32 33 34 33 31 32 33 34 34 34 33
5 8 10 13 16 18 21 23 26 29 31 33 35 38 40 42 43 43 44 44 44 43 43 42 41 38 35 32 32 32 33 33 33 34 35 35 34 34 34 35 33 33 31
8 10 12 14 16 18 20 23 26 28 31 34 38 40 43 45 46 46 46 46 46 45 43 42 41 40 38 35 34 35 34 34 32 33 35 34 33 32 33 33 33 33 30
Wind_Direction_850mb
228 230 228 224 220 220 223 227 226 225 222 216 211 206 203 202 202 202 202 202 198 195 191 190 199 226 244 259 270 276 281 282 284 292 300 307 312 316 318 318 320 320 320
229 231 231 226 221 221 225 228 226 224 221 216 211 207 205 204 205 204 205 201 199 195 194 194 211 242 251 259 264 270 277 283 289 294 300 308 313 318 319 318 317 318 317
228 228 230 228 221 222 226 228 227 222 220 215 211 209 207 207 207 206 205 203 198 195 198 217 242 252 254 260 265 272 278 283 289 294 299 307 312 317 317 315 315 316 317
229 228 230 230 224 222 224 227 227 224 221 216 212 211 210 209 208 207 203 201 200 201 215 235 253 250 256 264 270 274 277 282 288 293 297 303 307 313 313 314 313 315 317
234 230 230 231 227 223 224 226 228 227 222 216 212 210 211 210 209 207 206 205 205 215 230 241 249 250 258 268 273 275 277 281 286 290 293 299 306 309 312 313 310 313 316
238 234 231 230 227 227 228 225 229 227 221 214 213 212 210 209 208 209 210 209 202 227 229 246 250 255 263 269 274 275 277 280 285 287 292 296 301 305 309 307 309 311 313
242 236 233 231 229 228 227 228 228 227 221 214 213 212 211 210 210 210 211 208 223 225 239 242 253 259 263 268 273 277 280 284 288 290 291 295 300 303 304 304 302 303 307
244 238 234 233 231 230 227 228 229 226 221 215 213 212 212 211 211 211 211 217 239 225 242 245 251 257 262 268 272 277 280 282 284 282 285 293 294 297 298 301 296 302 307
243 239 236 233 231 229 228 227 227 223 217 214 214 213 212 211 212 213 214 225 248 234 247 252 246 256 262 267 273 278 281 282 283 284 286 288 294 299 285 283 290 296 299
246 241 237 234 232 230 229 227 226 223 218 214 214 215 215 214 215 215 224 242 248 249 250 255 252 258 261 266 272 278 280 285 290 287 287 290 292 293 297 299 299 291 287
242 243 241 237 233 230 228 225 224 220 216 217 216 217 220 216 219 220 238 253 257 255 250 254 258 259 265 269 272 275 280 287 288 291 294 297 299 302 303 300 301 286 288
231 226 226 227 225 223 223 223 221 216 213 216 216 216 221 222 223 236 251 246 254 257 256 262 262 262 265 267 271 277 281 285 285 289 291 291 293 295 298 297 295 290 291
190 192 197 204 210 213 215 215 210 202 212 220 227 224 222 225 235 246 251 238 251 259 265 266 263 263 265 269 275 276 274 275 280 282 286 291 293 294 296 298 296 294 293
157 161 165 181 190 196 199 204 205 216 227 226 224 220 225 236 245 249 245 244 251 254 260 261 264 269 271 272 273 274 277 279 281 286 290 293 298 298 297 297 297 297 293
153 161 167 180 189 192 202 215 222 226 230 230 228 234 242 246 246 242 248 254 257 253 255 257 260 262 265 268 273 276 277 281 286 290 293 296 297 298 299 299 300 297 294
162 166 168 173 180 191 203 209 215 219 228 235 237 240 242 245 246 244 244 247 247 245 248 251 255 258 263 268 270 274 283 290 294 297 299 301 301 302 302 303 300 297 300
152 157 163 169 178 184 191 201 208 212 221 226 228 230 233 237 240 242 245 247 245 245 249 251 253 258 260 267 278 284 290 295 299 303 305 306 306 308 307 304 301 303 306
146 151 156 165 172 181 190 200 207 216 224 226 228 232 235 238 242 245 244 250 251 251 252 256 258 263 271 275 280 286 292 297 302 304 303 302 304 309 311 309 306 305 307
146 152 154 165 174 185 199 211 219 226 230 235 238 239 240 239 241 245 257 256 253 251 253 257 264 268 271 276 281 287 292 297 299 299 300 302 302 305 310 309 308 309 309
156 162 174 192 204 214 225 231 234 234 237 239 240 243 246 252 253 251 250 250 251 254 260 264 265 268 271 276 281 288 293 296 298 300 301 300 299 302 304 304 305 306 307
188 203 217 226 229 234 239 244 245 244 245 245 244 245 247 248 250 252 254 254 258 261 262 263 265 269 273 278 282 286 289 293 296 296 294 294 296 296 296 299 301 301 303
225 230 238 242 245 246 249 249 249 249 247 246 246 245 250 253 255 257 257 258 258 260 262 266 269 272 274 275 278 281 284 289 289 288 290 291 291 291 292 294 295 294 296
251 259 260 262 262 261 259 257 255 253 251 249 248 250 256 256 257 259 261 264 266 269 271 271 270 270 271 273 275 278 283 284 283 284 286 286 288 288 289 290 291 290 291
252 262 268 268 268 268 266 264 261 260 259 259 260 261 263 264 263 262 263 265 268 270 273 273 271 268 268 271 274 278 283 284 283 283 283 284 284 283 283 284 286 286 286
242 248 252 258 262 264 265 268 269 270 270 270 269 269 269 269 271 272 273 274 275 275 274 273 272 272 271 272 275 280 282 284 284 282 282 281 281 281 282 281 281 279 281
252 260 263 265 266 269 271 272 272 271 270 270 270 269 268 269 271 271 272 272 272 271 270 270 271 273 275 276 275 275 276 276 277 278 279 280 281 281 279 278 276 276 275